Regional Weather Roundup
Issued by NWS Sioux Falls, SD

Home | Current Version | Previous Version | Text Only | Print | Product List | Glossary Off
Versions: 1 2 3 4 5 6 7 8 9 10 11 12 13 14 15 16 17 18 19 20 21 22 23 24 25 26 27 28 29 30 31 32 33 34 35 36 37 38 39 40 41 42 43 44 45 46 47 48 49 50

442
ASUS43 KFSD 021602
RWRFSD

WEATHER ROUNDUP FOR SE SOUTH DAKOTA/SW MINNESOTA/NW IOWA
NATIONAL WEATHER SERVICE SIOUX FALLS SD
1100 AM CDT MON MAY 02 2016

NOTE: "FAIR" INDICATES FEW OR NO CLOUDS BELOW 12,000 FEET WITH NO
SIGNIFICANT WEATHER AND OR OBSTRUCTIONS TO VISIBILITY.


SDZ038>040-050-052>070-021700-
SOUTHEAST SOUTH DAKOTA

CITY           SKY/WX    TMP DP  RH WIND       PRES   REMARKS
BROOKINGS      MOSUNNY   57  35  43 W5        30.10F
CHAMBERLAIN    NOT AVBL
HURON          MOSUNNY   56  40  55 S3        30.09F
MADISON        FAIR      57  36  44 W8        30.11F
MITCHELL       CLOUDY    56  42  59 NW6       30.12F
SIOUX FALLS    MOSUNNY   61  40  45 VRB7      30.11F
WINNER         FAIR      57  38  48 W8        30.12F
YANKTON        SUNNY     55  41  58 N7        30.13S
$$

MNZ071-072-080-081-089-090-097-098-021700-
SOUTHWEST MINNESOTA

CITY           SKY/WX    TMP DP  RH WIND       PRES   REMARKS
FAIRMONT       SUNNY     57  34  41 CALM      30.11S
JACKSON        CLOUDY    55  34  44 NW3       30.12S
LUVERNE        SUNNY     57  34  41 NW3       30.12S
MARSHALL       SUNNY     60  33  36 NW6       30.10F
MONTEVIDEO     MOSUNNY   63  37  39 CALM      30.10F
PIPESTONE      SUNNY     57  34  41 N8        30.10F
REDWOOD FALLS  SUNNY     60  31  33 VRB5      30.10F
TRACY          SUNNY     60  35  38 N6        30.11S
WINDOM         SUNNY     59  30  33 CALM      30.11S
WORTHINGTON    SUNNY     57  34  41 W6        30.12F
$$

IAZ001>003-012>014-020>022-031-032-NEZ013-014-SDZ071-021700-
NORTHWEST IOWA

CITY           SKY/WX    TMP DP  RH WIND       PRES   REMARKS
DENISON        SUNNY     57  41  54 N8        30.10F
ESTHERVILLE    SUNNY     58  39  49 VRB7      30.11F
SIOUX CITY     SUNNY     59  44  57 CALM      30.14F
SPENCER        SUNNY     57  36  45 VRB3      30.12F
STORM LAKE     SUNNY     57  37  47 NE5       30.12F
$$

ABBREVIATIONS USED IN REMARKS
   TC - TEMPERATURE IN CELSIUS
  WCI - WIND CHILL INDEX
   HX - HEAT INDEX
  VSB - VISIBILITY





USA.gov is the U.S. government's official web portal to all federal, state and local government web resources and services.